Location: Stoke Bliss
(52.2667°N, 2.5167°W)
Time: 13:10:24
(UTC+00:00)

Envisat - Pass Details

Date: 08 December 2021
Orbit: 764 x 766 km, 98.2° (Epoch: 28 January)

Event Time Altitude Azimuth Distance (km) Brightness Sun altitude
Rises 17:42:10 0° 215° (SW) 3,224 7.1 -14.9°
Reaches altitude 10° 17:45:25 10° 237° (WSW) 2,304 6.7 -15.4°
Maximum altitude 17:48:25 16° 274° (W) 1,946 6.1 -15.8°
Drops below altitude 10° 17:51:26 10° 311° (NW) 2,315 5.9 -16.3°
Sets 17:54:44 0° 333° (NNW) 3,247 6.4 -16.7°
